Find Starlink 4750

NORAD ID: 53841 Int'l Des: 2022-114 Owner: SPXS Country: US Constellation: starlink operational
LEOCIRCULAR

現在のビュー

3D地球を読み込み中...

About Starlink 4750

Starlink 4750 (NORAD 53841) is a starlink constellation satellite (v1.5) launched Sep 19, 2022 by SPXS of US. It operates in LEO, CIRCULAR orbit with a mass of 305.00 kg.

Starlink 4750について

説明を読み込み中...

次回通過

Passes for default location (London). Set your location on the main map for personalized predictions.

高度履歴

Loading altitude history...

軌道要素

1 53841U 22114Z 26162.51110361 .00000358 00000-0 40573-4 0 9995
2 53841 53.1605 233.0066 0001094 87.8639 272.2478 15.08834984207133
Epoch: Jun 11, 2026 • Age: 45 hours

現在のステータス

高度 540.2 km
速度 7.60 km/s
衛星直下点 23.43°N, 151.86°W
打ち上げ日 Sep 19, 2022
運用期間 3.7 years
タイプ internet

技術仕様

分類 Payload
質量 305.00 kg
乾燥質量 290.00 kg
総質量 305.00 kg
長さ 0.20 m
直径 2.80 m
スパン 9.00 m
形状 Box + pan
製造者 SPXS
バスタイプ Starlink
フェーズステータス In Orbit
所有者/国 SPXS/US

Most Searched